sat.trackr.live / text

‹ back to catalog

STARLINK-31665

NORAD 59655 · 2024-084B

PAYLOAD ACTIVE UNKNOWN

§ Identity

Operator
Country
US
Launch date
2024-05-06
Launch site
AFETR
Launch vehicle
Mass (kg)
RCS (m²)

Purposes: comms

External: N2YO · Heavens-Above · Gunter

§ Orbital elements

Epoch: 2026-05-25T04:34:08.393952Z

Period
94.27 min
Inclination
42.9999°
Eccentricity
0.0001269
Mean motion
15.27583284 rev/d
Perigee alt
482.2 km
Apogee alt
483.9 km
Semi-major
6,861.2 km
B*
3.4316e-5
RAAN
326.2490°
Arg perigee
273.2747°
Mean anomaly
86.7959°
Rev number
11,611

§ Raw data

STARLINK-316651 59655U 24084B   26145.19037493  .00000682  00000+0  34316-4 0  99982 59655  42.9999 326.2490 0001269 273.2747  86.7959 15.27583284116119

JSON: /api/v1/satellites/59655 · /tle

For live sub-satellite position, see the globe view (requires WebGL).

§ Visibility from observer

Set your observer location to see the next 7 days of passes ≥ 10°. The values pass through the URL so the page stays shareable.

No JS? Fill the form by hand. The geolocation button needs JavaScript.